Weather History for Wisconsin Rapids, WI

Change the Weather History Date:

Sunday, May 18, 2014

  Actual Average Record
Temperature  
Mean Temperature 60 °F -  
Max Temperature 73 °F 70 °F 91 °F (1977)
Min Temperature 46 °F 46 °F 27 °F (2002)
Degree Days  
Heating Degree Days 6    
Growing Degree Days 10 (Base 50)    
Moisture  
Dew Point 34 °F    
Average Humidity 42    
Maximum Humidity 66    
Minimum Humidity 20    
Precipitation  
Precipitation 0.00 in - - ()
Sea Level Pressure  
Sea Level Pressure 30.10 in    
Wind  
Wind Speed 8 mph (SW)    
Max Wind Speed 17 mph    
Max Gust Speed 25 mph    
Visibility 10 miles    
Events      
Averages and records for this station are not official NWS values.
T = Trace of Precipitation, MM = Missing Value Source: NWS Daily Summary

Daily Weather History Graph

Daily Weather History Graph

Search for Another Location

Airport:

Trip Planner

Search our weather history database for the weather conditions in past years. The results will help you decide how hot, cold, wet, or windy it might be!

Date:

Astronomy

May. 18, 2014 Rise Set
Actual Time 5:29 AM CDT 8:23 PM CDT
Civil Twilight 4:55 AM CDT 8:57 PM CDT
Nautical Twilight 4:11 AM CDT 9:40 PM CDT
Astronomical Twilight 3:20 AM CDT 10:32 PM CDT
Moon No Moon Rise 9:19 AM CDT (5/18)
Length of Visible Light 16h 02m
Length of Day
14h 54m
Waning Gibbous, 81% of the Moon is Illuminated
May 18
Waning Gibbous
May 21
Last Quarter
May 28
New
Jun 5
First Quarter
Jun 12
Full

Hourly Weather History & Observations

Time (CDT) Temp. Windchill Dew Point Humidity Pressure Visibility Wind Dir Wind Speed Gust Speed Precip Events Conditions
12:54 AM 46.9 °F - 34.0 °F 61% 30.08 in 10.0 mi SSW 5.8 mph - N/A   Clear
1:54 AM 46.0 °F 42.5 °F 35.1 °F 66% 30.09 in 10.0 mi SSW 6.9 mph - N/A   Clear
2:54 AM 46.9 °F - 35.1 °F 63% 30.09 in 10.0 mi SSW 9.2 mph - N/A   Clear
3:54 AM 48.0 °F - 35.1 °F 61% 30.09 in 10.0 mi SSW 8.1 mph - N/A   Partly Cloudy
4:54 AM 48.9 °F - 35.1 °F 59% 30.10 in 10.0 mi SSW 8.1 mph - 0.00 in   Mostly Cloudy
5:54 AM 48.0 °F - 34.0 °F 58% 30.12 in 10.0 mi SW 4.6 mph - N/A   Mostly Cloudy
6:54 AM 48.9 °F - 36.0 °F 61% 30.12 in 10.0 mi South 4.6 mph - N/A   Mostly Cloudy
7:54 AM 52.0 °F - 37.0 °F 57% 30.13 in 10.0 mi SSW 6.9 mph - N/A   Clear
8:54 AM 57.9 °F - 36.0 °F 44% 30.14 in 10.0 mi WSW 8.1 mph - N/A   Clear
9:54 AM 63.0 °F - 35.1 °F 35% 30.13 in 10.0 mi WSW 9.2 mph - N/A   Clear
10:54 AM 66.9 °F - 34.0 °F 30% 30.13 in 10.0 mi West 9.2 mph - N/A   Clear
11:54 AM 70.0 °F - 33.1 °F 26% 30.12 in 10.0 mi West 10.4 mph 19.6 mph N/A   Clear
12:54 PM 73.9 °F - 30.0 °F 20% 30.10 in 10.0 mi WSW 15.0 mph 24.2 mph N/A   Partly Cloudy
1:54 PM 73.0 °F - 30.9 °F 21% 30.10 in 10.0 mi West 13.8 mph 17.3 mph N/A   Overcast
2:54 PM 73.0 °F - 28.9 °F 20% 30.10 in 10.0 mi WSW 13.8 mph 20.7 mph N/A   Mostly Cloudy
3:54 PM 73.0 °F - 30.0 °F 20% 30.08 in 10.0 mi SW 17.3 mph 25.3 mph N/A   Mostly Cloudy
4:54 PM 72.0 °F - 30.0 °F 21% 30.08 in 10.0 mi SW 11.5 mph - N/A   Partly Cloudy
5:54 PM 71.1 °F - 30.0 °F 22% 30.08 in 10.0 mi SW 11.5 mph - N/A   Mostly Cloudy
6:54 PM 70.0 °F - 30.0 °F 23% 30.07 in 10.0 mi SSW 10.4 mph - N/A   Partly Cloudy
7:54 PM 64.0 °F - 32.0 °F 30% 30.08 in 10.0 mi SSW 4.6 mph - N/A   Clear
8:54 PM 57.9 °F - 35.1 °F 42% 30.09 in 10.0 mi South 4.6 mph - N/A   Clear
9:54 PM 57.0 °F - 35.1 °F 44% 30.10 in 10.0 mi SSW 4.6 mph - N/A   Clear
10:54 PM 53.1 °F - 36.0 °F 52% 30.12 in 10.0 mi Calm Calm - N/A   Clear
11:54 PM 48.9 °F - 37.9 °F 66% 30.13 in 10.0 mi Calm Calm - N/A   Clear